Location: Ebermuenstern
(48.3115°N, 7.5231°E)
Time: 20:40:44
(UTC+00:00)

Daily predictions for brighter satellites

Satellite Brightness Start Highest point End
(mag) Time Altitude Azimuth Time Altitude Azimuth Time Altitude Azimuth
Radarsat Rocket 4.4 16:46:29 10° SSE 16:52:55 85° ENE 17:00:17 10° NNW
SMAP 3.2 16:48:55 10° SSE 16:53:35 87° WSW 16:58:17 10° NNW
CORIOLIS 4.2 16:49:43 10° SSE 16:55:03 84° ENE 17:00:27 10° NNW
Cosmos 2344 4.5 16:47:49 10° NW 16:55:56 46° NNE 17:06:44 10° ESE
Cosmos 1300 4.2 16:54:23 10° SE 16:56:53 17° E 16:59:23 10° NE
Okean O Rocket 2.2 16:54:25 10° SE 16:58:21 35° ENE 17:02:19 10° N
Cosmos 1470 4.2 16:54:52 10° SSW 16:58:39 42° WNW 17:02:27 10° N
Cosmos 2322 Rocket 3.6 16:55:26 10° SE 16:58:48 16° E 17:02:08 10° ENE
Cosmos 1939 Rocket 3.1 16:55:21 10° S 16:59:17 77° WSW 17:03:18 10° NNW
NOAA 6 4.4 16:56:44 10° S 17:01:54 73° WSW 17:07:08 10° NNW
H-2A R/B 2.3 16:59:47 10° SSE 17:05:03 57° ENE 17:10:25 10° N
Cosmos 1703 3.3 17:01:19 10° N 17:05:12 57° ENE 17:09:03 10° SSE
Landsat 5 4.4 17:02:09 10° NE 17:06:04 30° E 17:10:00 10° SSE
Cosmos 2098 4.3 17:03:22 10° S 17:06:23 86° ESE 17:09:54 10° N
Cosmos 389 Rocket 2.6 17:06:18 10° SSW 17:09:42 76° WNW 17:13:08 10° N
Cosmos 2123 Rocket 4.3 17:03:47 10° N 17:09:51 45° ENE 17:15:51 10° SE
Cosmos 2360 Rocket 3.9 17:08:07 10° ESE 17:10:07 12° E 17:12:08 10° ENE
Tiangong 3.1 17:08:14 10° SW 17:10:34 19° SSE 17:12:57 10° ESE
USA 215 3.4 17:04:04 10° NE 17:10:38 78° NNW 17:17:09 10° WSW
Okean 1 Rocket 3.6 17:06:24 10° SSW 17:10:41 63° WNW 17:15:02 10° N
Okean 1-7 Rocket 4.0 17:10:28 10° N 17:14:37 39° ENE 17:18:47 10° SE
Cosmos 405 Rocket 2.7 17:11:40 10° N 17:15:38 66° ENE 17:19:37 10° SSE
Okean-O 4.2 17:15:23 10° E 17:18:12 17° ENE 17:21:03 10° NNE
deb Chang Zheng 4 3.4 17:15:21 10° SSE 17:19:32 82° ENE 17:23:48 10° NNW
COSMO-SKYMED 1 2.9 17:15:37 10° NNE 17:19:47 43° E 17:23:55 10° S
CZ-4B R/B 3.3 17:14:40 10° SSE 17:20:19 75° ENE 17:25:59 10° NNW
SL-19 R/B 4.3 17:18:15 10° NNE 17:23:59 68° ESE 17:29:31 10° S
Lacrosse 4 Rocket 2.3 17:20:19 10° NNW 17:24:14 33° NE 17:27:48 12° ESE
ARGOS 3.3 17:19:46 10° SE 17:25:00 53° ENE 17:30:16 10° N
Cosmos 1125 Rocket 4.2 17:19:51 10° SW 17:25:02 58° WNW 17:30:13 10° NNE
Cosmos 1269 Rocket 4.0 17:20:04 10° NNW 17:25:24 83° ENE 17:30:42 10° SSE
Cosmos 1892 Rocket 3.7 17:23:18 10° N 17:27:47 82° W 17:32:12 10° S
Cosmos 2263 Rocket 2.3 17:23:29 10° NNW 17:29:05 80° WSW 17:34:38 10° SSE
Cosmos 1980 Rocket 2.6 17:27:32 10° SW 17:33:10 68° WNW 17:38:53 10° NNE
Cosmos 2227 4.2 17:27:34 10° NNW 17:33:23 88° ENE 17:39:09 10° SSE
ATLAS 3B R/B 3.6 17:27:11 10° WSW 17:33:31 46° NW 17:40:12 10° NE
Cosmos 2369 4.5 17:28:06 10° SW 17:33:38 54° WNW 17:39:14 10° NNE
NOSS 3-1 (A) 4.3 17:30:46 10° SSE 17:34:50 23° ESE 17:37:47 16° ENE
MOS 1-B Rocket 4.2 17:28:51 10° NNE 17:35:27 55° E 17:41:12 10° S
Cosmos 1328 3.7 17:34:35 10° N 17:38:38 76° E 17:42:40 10° SSE
Cosmos 2251 Rocket 4.0 17:38:40 10° N 17:43:34 37° ENE 17:47:22 15° ESE
CZ-2C R/B 2.7 17:38:11 10° NNE 17:43:46 64° E 17:49:14 10° S
SKYMED 3 4.5 17:39:29 10° NNE 17:43:51 76° ESE 17:48:10 10° S
CZ-2D R/B 4.3 17:40:12 10° S 17:43:56 48° W 17:47:42 10° NNW
Cosmos 1758 Rocket 4.5 17:41:50 10° NNE 17:45:31 26° ENE 17:47:08 21° ESE
USA 267 4.2 17:39:31 10° SSE 17:45:48 48° SW 17:52:08 10° WNW
Cosmos 1953 3.2 17:43:12 10° SSW 17:47:10 52° WNW 17:51:10 10° N
Cosmos 1892 3.6 17:44:15 10° NNE 17:47:30 26° ENE 17:48:05 25° E
Cosmos 1697 Rocket 4.4 17:44:25 10° WSW 17:49:26 32° NW 17:54:29 10° NNE
Cosmos 304 Rocket 4.2 17:45:40 10° S 17:50:04 37° ESE 17:54:29 10° NE
HJ-1C 3.9 17:49:57 27° ESE 17:51:05 35° ENE 17:54:05 10° N
CSL-04 Rocket 4.4 17:48:19 17° ESE 17:51:46 32° ENE 17:56:38 10° N
Cosmos 1626 Rocket 3.4 17:47:57 10° N 17:52:15 63° ENE 17:56:32 10° SSE
CENTAUR R/B 4.3 17:47:28 10° NW 17:53:20 26° N 17:59:02 13° NE
NOSS 2-3 (D) 3.9 17:51:06 10° SSW 17:54:55 42° ESE 17:57:07 24° ENE
Meteor 1-4 Rocket 2.8 17:54:45 10° SSE 17:58:01 39° E 17:59:19 27° NE
Cosmos 1605 Rocket 4.0 17:53:15 10° SSE 17:59:21 57° E 18:05:34 10° NNE
NOSS 3-1 (C) 3.2 17:54:41 10° SSW 17:59:49 58° ESE 18:04:56 14° NE
IRS-1C Rocket 4.2 17:57:06 10° SE 18:02:11 52° ENE 18:07:18 10° N
Cosmos 1844 Rocket 2.9 17:57:02 10° NNW 18:02:26 47° NE 18:05:24 25° ESE
Cosmos 332 Rocket 3.9 18:00:45 10° S 18:05:29 52° ESE 18:10:14 10° NNE
Cosmos 1535 Rocket 4.5 17:59:31 10° S 18:05:48 84° E 18:12:12 10° N
Cosmos 1447 Rocket 4.5 18:01:04 10° N 18:07:07 55° ENE 18:13:06 10° SSE
CZ-4 R/B 1.2 18:03:13 10° SSE 18:07:13 74° ENE 18:11:20 10° N
NOSS 2-3 (C) 3.5 18:03:31 10° SSW 18:07:29 58° SE 18:09:38 28° ENE
SKYMED 2 4.1 18:03:34 10° N 18:07:53 62° WNW 18:12:10 10° SSW
H-2A R/B 2.5 18:04:48 10° SSE 18:09:07 86° WSW 18:13:18 10° NNW
X-37B 1.6 18:06:39 10° W 18:09:37 36° SSW 18:10:16 32° SSE
BREEZE-M DEB (TANK) 2.8 18:08:11 10° WNW 18:14:12 81° SSW 18:14:53 51° ESE
YAOGAN 1 2.5 18:11:02 10° SSE 18:15:22 89° E 18:19:44 10° NNW
CZ-4C R/B 3.5 18:13:21 10° N 18:16:42 56° WNW 18:19:55 10° SSW
Cosmos 220 Rocket 4.2 18:14:24 10° S 18:18:38 48° ESE 18:19:15 44° E
H-2A R/B 2.0 18:14:37 10° NNE 18:18:39 50° E 18:22:43 10° S
SWARM C 4.3 18:16:43 10° S 18:20:01 87° E 18:23:21 10° N
SWARM A 4.0 18:16:54 10° S 18:20:13 87° E 18:23:33 10° N
Cosmos 2278 Rocket 3.8 18:17:04 10° N 18:20:46 17° NE 18:21:01 17° NE
GENESIS II 4.3 18:19:57 10° NNW 18:23:49 55° NE 18:23:55 55° NE
Meteor 2-10 Rocket 3.5 18:19:05 10° S 18:24:39 73° E 18:30:01 10° NNE
Cosmos 1408 2.9 18:23:12 10° N 18:26:02 48° NNE 18:26:02 48° NNE
IRAS Rocket 4.2 18:21:20 10° NNE 18:26:56 89° ESE 18:32:27 10° SSW
SL-16 R/B 2.2 18:22:44 10° SSW 18:28:25 84° WNW 18:34:08 10° NNE
Cosmos 839 Rocket 4.4 18:21:49 10° NW 18:29:32 74° WSW 18:34:52 16° SSE
Cosmos 614 Rocket 3.8 18:25:30 10° NNW 18:30:37 88° ENE 18:33:26 27° SSE
Iridium 4 Rocket 4.5 18:26:54 10° NNW 18:31:14 43° W 18:35:55 10° SSW
Cosmos 1300 4.0 18:28:35 10° SSW 18:32:10 40° WNW 18:35:48 10° N
Cosmos 371 Rocket 3.9 18:27:57 10° SW 18:32:44 56° WNW 18:37:34 10° NNE
ATLAS 5 CENTAUR R/B 3.1 18:30:12 10° W 18:33:47 29° NNW 18:36:43 15° NNE
SL-8 R/B 3.6 18:29:30 10° W 18:34:18 88° S 18:35:12 60° E
Okean O Rocket 3.7 18:31:03 10° SSW 18:34:45 27° W 18:38:30 10° NW
Cosmos 1825 4.0 18:35:26 10° N 18:36:44 20° N 18:36:44 20° N
Cosmos 2322 Rocket 2.1 18:36:26 10° SSW 18:42:03 86° WNW 18:47:06 13° NNE
DMSP B5D2-2 4.0 18:39:20 10° NNE 18:44:38 89° W 18:49:51 10° SSW
H-2A R/B 4.5 18:40:32 10° SW 18:44:49 24° W 18:49:11 10° NW
Tiangong 3.5 18:44:16 10° WSW 18:45:38 18° SW 18:45:38 18° SW
Cosmos 1844 3.6 18:42:29 10° NNW 18:48:19 83° ENE 18:49:50 51° SE
Cosmos 1932 4.3 18:42:50 10° NW 18:49:06 87° NE 18:51:03 47° SE
Cosmos 2360 Rocket 2.0 18:47:28 10° SSW 18:53:05 74° ESE 18:54:25 53° NE
Cosmos 2333 Rocket 4.4 18:47:55 10° S 18:47:59 10° S 18:47:59 10° S
USA 215 4.0 18:50:00 26° NE 18:53:13 45° N 18:59:22 10° W
Okean-O 2.9 18:52:50 42° SSW 18:54:12 66° WSW 18:58:38 10° NNW
Cosmos 2346 Rocket 4.5 18:50:37 10° N 18:56:48 58° ENE 18:56:56 58° E
NOSS 2-3 (E) 4.1 18:53:50 10° WSW 18:57:52 57° NW 18:58:36 50° N
USA 229 DEB 3.4 18:56:04 10° SW 19:02:26 84° SE 19:04:46 44° NE
USA 229 3.4 18:56:10 10° SW 19:02:33 83° SE 19:04:49 45° NE
Lacrosse 4 Rocket 2.9 18:58:58 10° NW 19:02:54 35° WSW 19:04:08 29° SSW
Resurs 01 Rocket 4.2 19:09:58 10° N 19:09:58 10° N 19:10:02 10° N
Cosmos 44 3.5 19:02:02 10° SW 19:07:00 74° SSW 19:07:00 74° SSW
Meteor 2-11 Rocket 4.3 19:03:50 10° S 19:10:00 89° W 19:16:12 10° N
Cosmos 2344 4.5 19:02:06 10° NW 19:11:14 71° SW 19:20:14 22° SSE
Cosmos 2100 Rocket 3.9 19:13:46 10° S 19:20:05 88° E 19:26:30 10° N
BREEZE-M R/B 3.8 19:19:25 10° W 19:22:08 42° SW 19:22:08 42° SW
Cosmos 1459 Rocket 4.2 19:24:21 59° NNE 19:24:21 59° NNE 19:29:13 10° N
NOSS 3-1 (A) 3.4 19:19:29 10° SW 19:24:53 71° NW 19:25:17 69° NNW
ATLAS 3B R/B 4.4 19:20:40 10° WNW 19:26:00 24° N 19:29:23 17° NNE
Cosmos 1943 Rocket 4.4 19:24:07 10° N 19:25:42 13° NNE 19:25:42 13° NNE
Cosmos 407 Rocket 4.1 19:29:12 10° NNW 19:33:40 55° WNW 19:33:40 55° WNW
Cosmos 2173 Rocket 4.0 19:36:02 74° NW 19:36:02 74° NW 19:41:57 10° N
Cosmos 1140 Rocket 4.4 19:35:42 10° NNW 19:39:37 46° WNW 19:39:37 46° WNW
Cosmos 1844 Rocket 4.1 19:41:16 10° NW 19:46:08 32° WSW 19:47:06 30° SW
CENTAUR R/B 3.8 19:39:01 10° NW 19:46:12 40° NNE 19:46:12 40° NNE
Cosmos 2278 Rocket 3.8 20:00:17 10° NNW 20:02:52 28° NNW 20:02:52 28° NNW
BREEZE M DEB (TANK) 4.3 19:48:17 10° W 20:09:16 83° NNW 20:09:16 83° NNW
SL-16 R/B 4.5 20:09:18 10° W 20:13:25 20° NW 20:17:03 12° N
Cosmos 2322 Rocket 4.4 20:22:53 10° W 20:26:58 20° NW 20:28:57 17° NNW
USA 215 4.4 20:37:21 36° NNW 20:37:21 36° NNW 20:41:39 10° WNW
Cosmos 2360 Rocket 4.3 20:33:06 10° W 20:36:17 22° WNW 20:36:17 22° WNW
CENTAUR R/B 4.5 21:29:43 10° NW 21:33:22 32° NW 21:33:22 32° NW
